Fort Madison, IA

1:57 AM CDT on August 17, 2017 (GMT -0500)
Fort Madison Municipal

Weather History for KFSW - May, 2013

Change the Weather History Date:

Saturday, May 25, 2013

  Actual Average Record
Temperature  
Mean Temperature 56 °F -  
Max Temperature 60 °F 73 °F 90 °F (1953)
Min Temperature 51 °F 54 °F 39 °F (1979)
Degree Days  
Heating Degree Days 10    
Growing Degree Days 6 (Base 50)    
Moisture  
Dew Point 47 °F    
Average Humidity 75    
Maximum Humidity 94    
Minimum Humidity 45    
Precipitation  
Precipitation 0.89 in - - ()
Sea Level Pressure  
Sea Level Pressure 30.26 in    
Wind  
Wind Speed 9 mph (ESE)    
Max Wind Speed 17 mph    
Max Gust Speed 25 mph    
Visibility 10 miles    
Events Rain    
Averages and records for this station are not official NWS values.
T = Trace of Precipitation, MM = Missing Value Source: NWS Daily Summary

Daily Weather History Graph

Daily Weather History Graph

Search for Another Location

Airport or City:

Trip Planner

Search our weather history database for the weather conditions in past years. The results will help you decide how hot, cold, wet, or windy it might be!

Date:

Astronomy

May. 25, 2013 Rise Set
Actual Time 5:40 AM CDT 8:24 PM CDT
Civil Twilight 5:08 AM CDT 8:56 PM CDT
Nautical Twilight 4:27 AM CDT 9:37 PM CDT
Astronomical Twilight 3:42 AM CDT 10:23 PM CDT
Moon 9:13 PM CDT (5/25) 6:07 AM CDT (5/25)
Length of Visible Light 15h 48m
Length of Day
14h 44m
Full, 100% of the Moon is Illuminated
May 25
Full
May 31
Last Quarter
Jun 8
New
Jun 16
First Quarter
Jun 23
Full

Hourly Weather History & Observations

Time (CDT) Temp. Dew Point Humidity Pressure Visibility Wind Dir Wind Speed Gust Speed Precip Events Conditions
12:15 AM 60.8 °F 39.2 °F 45% 30.23 in 10.0 mi SE 11.5 mph - N/A   Scattered Clouds
12:35 AM 60.8 °F 39.2 °F 45% 30.25 in 10.0 mi ESE 9.2 mph - N/A Rain Light Rain
12:55 AM 60.8 °F 39.2 °F 45% 30.25 in 10.0 mi SE 8.1 mph - N/A   Clear
1:15 AM 60.8 °F 39.2 °F 45% 30.25 in 10.0 mi SSE 5.8 mph - N/A   Clear
1:35 AM 59.0 °F 41.0 °F 51% 30.25 in 10.0 mi SE 5.8 mph - N/A   Clear
1:55 AM 59.0 °F 41.0 °F 51% 30.25 in 10.0 mi SSE 4.6 mph - N/A   Clear
2:15 AM 59.0 °F 42.8 °F 55% 30.26 in 10.0 mi South 3.5 mph - N/A   Mostly Cloudy
2:35 AM 59.0 °F 42.8 °F 55% 30.25 in 10.0 mi SSE 4.6 mph - N/A   Scattered Clouds
2:55 AM 59.0 °F 42.8 °F 55% 30.27 in 10.0 mi Calm Calm - N/A   Mostly Cloudy
3:15 AM 59.0 °F 44.6 °F 59% 30.27 in 10.0 mi ESE 3.5 mph - N/A   Overcast
3:35 AM 59.0 °F 44.6 °F 59% 30.29 in 10.0 mi Calm Calm - N/A   Mostly Cloudy
3:55 AM 57.2 °F 44.6 °F 63% 30.29 in 10.0 mi East 5.8 mph - N/A   Overcast
4:15 AM 57.2 °F 44.6 °F 63% 30.30 in 10.0 mi East 9.2 mph - N/A   Overcast
4:35 AM 57.2 °F 42.8 °F 59% 30.30 in 10.0 mi East 8.1 mph - N/A   Overcast
4:55 AM 57.2 °F 44.6 °F 63% 30.31 in 10.0 mi East 8.1 mph - N/A   Scattered Clouds
5:15 AM 57.2 °F 44.6 °F 63% 30.32 in 10.0 mi East 6.9 mph - N/A   Mostly Cloudy
5:35 AM 55.4 °F 44.6 °F 67% 30.29 in 3.0 mi ESE 11.5 mph - N/A Rain Rain
5:55 AM 55.4 °F 42.8 °F 63% 30.29 in 10.0 mi SE 11.5 mph - N/A   Overcast
6:15 AM 55.4 °F 42.8 °F 63% 30.28 in 10.0 mi SE 13.8 mph - N/A   Mostly Cloudy
6:35 AM 55.4 °F 41.0 °F 58% 30.28 in 10.0 mi SE 11.5 mph - N/A   Mostly Cloudy
6:55 AM 55.4 °F 42.8 °F 63% 30.29 in 10.0 mi SE 9.2 mph - N/A Rain Light Rain
7:15 AM 55.4 °F 44.6 °F 67% 30.30 in 10.0 mi SSE 8.1 mph - N/A Rain Light Rain
7:35 AM 55.4 °F 44.6 °F 67% 30.29 in 10.0 mi SE 10.4 mph - 0.01 in Rain Light Rain
7:55 AM 53.6 °F 46.4 °F 77% 30.30 in 10.0 mi SE 4.6 mph - 0.01 in Rain Light Rain
8:15 AM 53.6 °F 48.2 °F 82% 30.30 in 10.0 mi SSE 5.8 mph - 0.05 in Rain Rain
8:35 AM 53.6 °F 48.2 °F 82% 30.31 in 7.0 mi East 5.8 mph - 0.10 in Rain Rain
8:55 AM 53.6 °F 48.2 °F 82% 30.30 in 10.0 mi ESE 8.1 mph - 0.13 in Rain Light Rain
9:15 AM 53.6 °F 48.2 °F 82% 30.31 in 7.0 mi East 8.1 mph - 0.05 in Rain Rain
9:35 AM 53.6 °F 48.2 °F 82% 30.34 in 10.0 mi SSE 4.6 mph - 0.11 in Rain Rain
9:55 AM 51.8 °F 48.2 °F 88% 30.39 in 5.0 mi Calm Calm - 0.17 in Rain Rain
10:15 AM 51.8 °F 48.2 °F 88% 30.39 in 5.0 mi East 5.8 mph - 0.13 in Rain Heavy Rain
10:35 AM 51.8 °F 48.2 °F 88% 30.37 in 7.0 mi ENE 8.1 mph - 0.25 in Rain Rain
10:55 AM 51.8 °F 48.2 °F 88% 30.31 in 7.0 mi ESE 15.0 mph - 0.34 in Rain Heavy Rain
11:15 AM 51.8 °F 48.2 °F 88% 30.30 in 10.0 mi SE 15.0 mph 18.4 mph 0.08 in Rain Rain
11:35 AM 51.8 °F 48.2 °F 88% 30.27 in 10.0 mi ESE 13.8 mph 21.9 mph 0.14 in Rain Rain
11:55 AM 51.8 °F 48.2 °F 88% 30.29 in 10.0 mi ESE 9.2 mph - 0.17 in Rain Light Rain
12:15 PM 53.6 °F 48.2 °F 82% 30.34 in 10.0 mi SE 3.5 mph - N/A   Overcast
12:35 PM 51.8 °F 48.2 °F 88% 30.28 in 5.0 mi ESE 11.5 mph - 0.04 in Rain Rain
12:55 PM 51.8 °F 48.2 °F 88% 30.29 in 10.0 mi SE 8.1 mph - 0.06 in Rain Light Rain
1:15 PM 53.6 °F 50.0 °F 88% 30.23 in 10.0 mi SE 15.0 mph - 0.01 in Rain Light Rain
1:35 PM 53.6 °F 51.8 °F 94% 30.22 in 10.0 mi SE 11.5 mph 20.7 mph 0.01 in   Mostly Cloudy
1:55 PM 55.4 °F 51.8 °F 88% 30.22 in 10.0 mi SSE 17.3 mph 24.2 mph 0.01 in   Mostly Cloudy
2:15 PM 55.4 °F 51.8 °F 88% 30.22 in 10.0 mi SSE 12.7 mph 24.2 mph N/A   Overcast
2:35 PM 55.4 °F 50.0 °F 82% 30.22 in 10.0 mi SSE 13.8 mph 23.0 mph N/A   Mostly Cloudy
2:55 PM 57.2 °F 51.8 °F 82% 30.21 in 10.0 mi SSE 16.1 mph 25.3 mph N/A   Mostly Cloudy
3:15 PM 57.2 °F 48.2 °F 72% 30.21 in 10.0 mi SSE 13.8 mph 21.9 mph N/A   Overcast
3:35 PM 57.2 °F 48.2 °F 72% 30.22 in 10.0 mi SSE 11.5 mph - N/A   Overcast
3:55 PM 57.2 °F 48.2 °F 72% 30.22 in 10.0 mi ESE 8.1 mph - N/A   Overcast
4:15 PM 57.2 °F 50.0 °F 77% 30.22 in 10.0 mi East 9.2 mph - N/A   Overcast
4:35 PM 57.2 °F 50.0 °F 77% 30.22 in 10.0 mi East 9.2 mph - N/A   Overcast
4:55 PM 57.2 °F 48.2 °F 72% 30.22 in 10.0 mi East 8.1 mph - N/A   Overcast
5:15 PM 57.2 °F 50.0 °F 77% 30.22 in 10.0 mi East 9.2 mph - N/A   Overcast
5:35 PM 57.2 °F 50.0 °F 77% 30.22 in 10.0 mi East 10.4 mph - N/A   Overcast
5:55 PM 55.4 °F 50.0 °F 82% 30.23 in 10.0 mi East 11.5 mph - N/A   Overcast
6:15 PM 55.4 °F 50.0 °F 82% 30.22 in 10.0 mi East 11.5 mph 18.4 mph N/A   Overcast
6:35 PM 55.4 °F 50.0 °F 82% 30.22 in 10.0 mi East 12.7 mph 16.1 mph N/A   Overcast
6:55 PM 55.4 °F 50.0 °F 82% 30.22 in 10.0 mi East 11.5 mph - N/A   Overcast
7:15 PM 55.4 °F 50.0 °F 82% 30.22 in 10.0 mi East 12.7 mph 16.1 mph N/A   Overcast
7:35 PM 55.4 °F 50.0 °F 82% 30.21 in 10.0 mi East 12.7 mph - N/A   Overcast
7:55 PM 53.6 °F 50.0 °F 88% 30.21 in 10.0 mi East 11.5 mph - N/A   Overcast
8:15 PM 53.6 °F 50.0 °F 88% 30.21 in 10.0 mi East 11.5 mph 16.1 mph N/A   Overcast
8:35 PM 53.6 °F 50.0 °F 88% 30.20 in 10.0 mi East 10.4 mph 18.4 mph N/A   Overcast
8:55 PM 53.6 °F 50.0 °F 88% 30.20 in 10.0 mi East 12.7 mph 19.6 mph N/A   Overcast
9:15 PM 53.6 °F 50.0 °F 88% 30.21 in 10.0 mi East 11.5 mph 17.3 mph N/A   Overcast
9:35 PM 55.4 °F 50.0 °F 82% 30.21 in 10.0 mi East 16.1 mph 20.7 mph N/A   Overcast
9:55 PM 55.4 °F 48.2 °F 77% 30.22 in 10.0 mi East 11.5 mph 18.4 mph N/A   Overcast
10:15 PM 55.4 °F 48.2 °F 77% 30.22 in 10.0 mi East 10.4 mph 16.1 mph N/A   Overcast
10:35 PM 55.4 °F 48.2 °F 77% 30.22 in 10.0 mi East 11.5 mph 17.3 mph N/A   Overcast
10:55 PM 55.4 °F 50.0 °F 82% 30.23 in 10.0 mi East 10.4 mph - N/A   Overcast
11:15 PM 55.4 °F 50.0 °F 82% 30.22 in 10.0 mi East 15.0 mph 19.6 mph N/A   Overcast
11:35 PM 55.4 °F 50.0 °F 82% 30.23 in 10.0 mi ESE 12.7 mph 18.4 mph N/A   Overcast
11:55 PM 55.4 °F 48.2 °F 77% 30.22 in 10.0 mi East 11.5 mph - N/A   Overcast